Regional Weather Roundup
Issued by NWS

Home | Current Version | Previous Version | Graphics & Text | Print | Product List | Glossary On
Versions: 1 2 3 4 5 6 7 8 9 10 11 12 13 14 15 16 17 18 19 20 21 22 23 24 25 26 27 28 29 30 31 32 33 34 35 36 37 38 39 40 41 42 43 44 45 46 47 48 49 50
000
ASUS43 KMPX 271010
RWRMN
WEATHER ROUNDUP FOR MINNESOTA
NATIONAL WEATHER SERVICE TWIN CITIES/CHANHASSEN MN
500 AM CDT SUN MAY 27 2018


NOTE: "FAIR" INDICATES FEW OR NO CLOUDS BELOW 12,000 FEET WITH NO
SIGNIFICANT WEATHER AND/OR OBSTRUCTIONS TO VISIBILITY. N/A MEANS
CURRENT SKY AND/OR WEATHER CONDITIONS ARE NOT AVAILABLE.

MNZ060>063-068>070-271100-
   Twin Cities Metro

CITY           SKY/WX    TMP DP  RH WIND       PRES   REMARKS
TWIN CITIES    FAIR      69  63  81 SE5       29.78R
ST PAUL        FAIR      65  60  84 CALM      29.78R
CRYSTAL        FAIR      63  59  87 CALM      29.76S
BLAINE         FAIR      61  61 100 CALM      29.77S
LAKEVILLE      FAIR      59  59 100 CALM      29.79R
EDEN PRAIRIE   FAIR      66  63  90 CALM      29.77R
SOUTH ST PAUL  FAIR      65  63  93 CALM      29.78R
LAKE ELMO      FAIR      59  59 100 CALM      29.79S
$$
MNZ001>005-007-008-013>017-022>024-027-028-271100-
   Northwest Minnesota

CITY           SKY/WX    TMP DP  RH WIND       PRES   REMARKS
BEMIDJI        FAIR      52  51  97 CALM      29.79S FOG
HALLOCK        FAIR      63  57  82 E8        29.73S
ROSEAU         FAIR      55  52  88 CALM      29.77S
WARROAD        FAIR      55  52  88 CALM      29.78S
THIEF RVR FALL FAIR      60  57  89 SE6       29.78R
CROOKSTON      FAIR      64  57  77 SE6       29.75R
FOSSTON        FAIR      63  54  72 SE3       29.77S
DETROIT LAKES  FAIR      63  52  67 CALM      29.78F
MOORHEAD       FAIR      64  50  59 CALM      29.74S
PARK RAPIDS    FAIR      56  54  93 CALM      29.79R
MAHNOMEN       FAIR      65  55  71 E6        29.76F
$$
MNZ006-009>011-018-025>026-271100-
   North Central Minnesota

CITY           SKY/WX    TMP DP  RH WIND       PRES   REMARKS
BAUDETTE         N/A    N/A N/A N/A MISG      29.77F
FLAG ISLAND    FAIR      63  61  94 CALM      29.77F
INTL FALLS     FAIR      50  50 100 CALM      29.78S FOG
WASKISH        FAIR      54  54 100 CALM      29.78S FOG
BIG FORK       FAIR      52  50  93 CALM      29.80R
LONGVILLE      FAIR      54  54 100 CALM      29.79S FOG
GRAND RAPIDS   FAIR      55  55 100 CALM      29.82S FOG
ORR            FAIR      57  55  94 CALM      29.77S
COOK           FAIR      54  52  94 CALM      29.81R
WALKER         FAIR      55  54  96 CALM      29.79R
$$
MNZ012-019>021-037-271100-
   Northeast Minnesota

CITY           SKY/WX    TMP DP  RH WIND       PRES   REMARKS
DULUTH         FAIR      57  53  86 SW3       29.80R
ELY            FAIR      54  54 100 CALM      29.80S
HIBBING        FOG       48  48 100 CALM      29.80S VSB 1/2
EVELETH        FAIR      50  48  93 CALM      29.81F FOG
DULUTH HARBOR  FAIR      50  48  93 S3        29.80S
TWO HARBORS    FAIR      48  45  87 CALM      29.78S
SILVER BAY     FAIR      46  46 100 CALM      29.78R
GRAND MARAIS     N/A     41  40  96 SW6       29.80R
G MARAIS ARPRT FAIR      54  48  82 W3        29.82R
$$
MNZ029>031-032-039>041-046>048-054>057-064-271100-
   West Central Minnesota

CITY           SKY/WX    TMP DP  RH WIND       PRES   REMARKS
FERGUS FALLS   FAIR      72  54  53 E5        29.70S
WHEATON        CLOUDY    64  52  63 E10       29.74F
MORRIS         CLOUDY    66  54  63 SE6       29.74S
ALEXANDRIA     FAIR      69  53  56 E6        29.79S
ELBOW LAKE     FAIR      71  56  59 SE8       29.76R
WADENA         FAIR      55  55 100 CALM      29.78R
GLENWOOD       FAIR      66  55  68 E6        29.78S
APPLETON       CLOUDY    64  52  63 CALM      29.74S
BENSON         CLOUDY    63  54  72 CALM      29.76F
ORTONVILLE     CLOUDY    66  55  68 E7        29.74S
MADISON        CLOUDY    63  52  67 SE7       29.75S
WILLMAR        FAIR      63  54  72 CALM      29.79S
$$
MNZ033>034-036-042>043-049>051-058-059-271100-
   Central Minnesota

CITY           SKY/WX    TMP DP  RH WIND       PRES   REMARKS
ST CLOUD       FAIR      57  54  89 CALM      29.77S
SAUK CENTRE    FAIR      59  53  80 CALM      29.78S HAZE
PAYNESVILLE    FAIR      59  58  95 CALM      29.79S
AITKIN         MOCLDY    50  48  93 CALM      29.78S FOG
PINE RIVER     FAIR      52  48  87 CALM      29.82S
BRAINERD       FAIR      57  54  89 CALM      29.78F FOG
STAPLES        FAIR      57  55  94 CALM      29.79R
LONG PRAIRIE   FAIR      59  54  82 CALM      29.79S
LITTLE FALLS   FAIR      54  54 100 CALM      29.78S
LITCHFIELD     FAIR      64  64 100 CALM      29.78S
BUFFALO        FAIR      60  55  82 CALM      29.79S
MAPLE LAKE     FAIR      59  57  92 CALM      29.78S
HUTCHINSON     FAIR      64  60  86 CALM      29.79S
$$
MNZ037-044-045-052-053-271100-
   East Central Minnesota

CITY           SKY/WX    TMP DP  RH WIND       PRES   REMARKS
PRINCETON      FAIR      55  54  94 CALM      29.78S
MORA           FAIR      55  54  94 CALM      29.80S FOG
CAMBRIDGE      FAIR      59  52  77 CALM      29.78S
RUSH CITY      MOCLDY    54  53  95 CALM      29.79R
MOOSE LAKE     MOCLDY    50  46  87 CALM      29.79S FOG
HINCKLEY       FAIR      54  54 100 NE3       29.79S
CLOQUET        FAIR      52  48  87 NW5       29.80S
MCGREGOR         N/A     52  50  93 CALM      29.80S
$$
MNZ071>073-080-081-089-090-097-098-271100-
   Southwest Minnesota

CITY           SKY/WX    TMP DP  RH WIND       PRES   REMARKS
MONTEVIDEO     CLOUDY    64  54  68 S5        29.76S
CANBY          CLOUDY    76  49  38 S7        29.76S
MARSHALL       CLOUDY    68  54  60 S5        29.77S
REDWOOD FALLS  CLOUDY    64  57  78 S3        29.76S
OLIVIA         CLOUDY    64  55  72 CALM      29.77R
PIPESTONE      CLOUDY    72  52  49 SE6       29.80S
WINDOM         CLEAR     64  46  52 SW3       29.80R
WORTHINGTON    CLOUDY    64  54  69 S5        29.81S
JACKSON        CLEAR     66  54  63 CALM      29.81S
TRACY          CLOUDY    75  52  44 S6        29.78S
SLAYTON        CLOUDY    68  43  40 S6        29.81F
$$
MNZ065>067-074>077-082>085-091>093-271100-
   South Central Minnesota

CITY           SKY/WX    TMP DP  RH WIND       PRES   REMARKS
MANKATO        FAIR      68  60  75 SE7       29.79S
NEW ULM        CLEAR     63  54  72 SW5       29.78R
ST JAMES       CLEAR     64  55  72 S5        29.79S
FAIRMONT       CLEAR     64  57  78 CALM      29.80S
GLENCOE        FAIR      63  63 100 CALM      29.77S
FARIBAULT      FAIR      63  61  94 CALM      29.80R
OWATONNA       FAIR      63  59  88 CALM      29.80R
WASECA         FAIR      59  55  88 E3        29.80S
ALBERT LEA     FAIR      63  59  88 CALM      29.81R
$$
MNZ078>079-086>088-094>096-271100-
   Southeast Minnesota

CITY           SKY/WX    TMP DP  RH WIND       PRES   REMARKS
ROCHESTER      FAIR      65  62  90 S6        29.81R
RED WING       FAIR      61  57  88 CALM      29.77S
STANTON        FAIR      62  59  90 CALM      29.78R
DODGE CENTER   FAIR      66  57  72 CALM      29.81R
WINONA         FAIR      63  63 100 CALM      29.78S
AUSTIN         FAIR      63  59  88 CALM      29.81R
PRESTON        FAIR      64  62  93 CALM      29.82R
$$
ABBREVIATIONS USED IN REMARKS
   TC - TEMPERATURES IN CELSIUS
  WCI - WIND CHILL INDEX
   HX - HEAT INDEX
  VSB - VISIBILITY
$$




USA.gov is the U.S. government's official web portal to all federal, state and local government web resources and services.